This is the latest recevied weather packets stored in our database for station/object F4ELU-13. If no packets are shown the sender has not sent any weather packets the latest 10 day(s).
| Time | Temp. | Humidity | Pressure | Rain* | Wind** | Luminosity | Snow |
|---|---|---|---|---|---|---|---|
| 1777586403 | 15° C | 86% | 1019.9 hPa | 0 mm | - | - | - |
| 1777586043 | 15° C | 86% | 1019.8 hPa | 0 mm | - | - | - |
| 1777585503 | 15° C | 85% | 1019.7 hPa | 0 mm | - | - | - |
| 1777584963 | 15° C | 87% | 1019.7 hPa | 0 mm | - | - | - |
| 1777584423 | 15° C | 85% | 1019.8 hPa | 0 mm | - | - | - |
| 1777583883 | 15.56° C | 83% | 1019.7 hPa | 0 mm | - | - | - |
| 1777583349 | 15.56° C | 82% | 1019.6 hPa | 0 mm | - | - | - |
| 1777582803 | 16.67° C | 81% | 1019.4 hPa | 0 mm | - | - | - |
| 1777582443 | 16.67° C | 79% | 1019.4 hPa | 0 mm | - | - | - |
| 1777581903 | 16.67° C | 80% | 1019.4 hPa | 0 mm | - | - | - |
| 1777581363 | 17.22° C | 79% | 1019.3 hPa | 0 mm | - | - | - |
| 1777580823 | 17.22° C | 79% | 1019.3 hPa | 0 mm | - | - | - |
| 1777580283 | 17.78° C | 76% | 1019.3 hPa | 0 mm | - | - | - |
| 1777579743 | 17.78° C | 76% | 1019 hPa | 0 mm | - | - | - |
| 1777579203 | 17.22° C | 79% | 1018.9 hPa | 0 mm | - | - | - |
| 1777578844 | 17.22° C | 79% | 1018.8 hPa | 0 mm | - | - | - |
| 1777578303 | 17.78° C | 76% | 1018.6 hPa | 0 mm | - | - | - |
| 1777577763 | 18.33° C | 76% | 1018.5 hPa | 0 mm | - | - | - |
| 1777577223 | 17.78° C | 76% | 1018.4 hPa | 0 mm | - | - | - |
| 1777576683 | 18.33° C | 75% | 1018.2 hPa | 0 mm | - | - | - |
| 1777576143 | 18.33° C | 76% | 1018 hPa | 0 mm | - | - | - |
| 1777575603 | 18.33° C | 75% | 1017.7 hPa | 0 mm | - | - | - |
| 1777575244 | 18.89° C | 74% | 1017.7 hPa | 0 mm | - | - | - |
| 1777574703 | 18.89° C | 72% | 1017.4 hPa | 0 mm | - | - | - |
| 1777574163 | 19.44° C | 73% | 1017.3 hPa | 0 mm | - | - | - |
* Rain latest hour (hover to see other rain measurements)
** Current wind speed in m/s (hover to see current wind gust speed)